Probability
40 37 35 33 26 14 6 2 1 0 0 0 0 0 0 0 0 0 0 0 0 0 0 0 0 0 0 0 0 0 0 0 0 0 0 1 2 2
37 33 29 25 19 11 4 1 0 0 0 0 0 0 0 0 0 0 0 0 0 0 0 0 0 0 0 0 0 0 0 0 0 0 0 0 1 1
28 23 16 13 10 7 3 0 0 0 0 0 0 0 0 0 0 0 0 0 0 0 0 0 0 0 0 0 0 0 0 0 0 0 0 0 0 0
16 11 6 4 4 3 1 0 0 0 0 0 0 0 0 0 0 0 0 0 0 0 0 0 0 0 0 0 0 0 0 0 0 0 0 0 0 0
6 4 2 1 1 1 0 0 0 0 0 0 0 0 0 0 0 0 0 0 0 0 0 0 0 0 0 0 0 0 0 0 0 0 0 0 0 0
1 1 1 0 0 0 0 0 0 0 0 0 0 0 0 0 0 0 0 0 0 0 0 0 0 0 0 0 0 0 0 0 0 0 0 0 0 0
0 0 0 0 0 0 0 0 0 0 0 0 0 0 0 0 0 0 0 0 0 0 0 0 0 0 0 0 0 0 0 0 0 0 0 0 0 0
0 0 0 0 0 0 0 0 0 0 0 0 0 0 0 0 0 0 0 0 0 0 0 0 0 0 0 0 0 0 0 0 0 0 0 0 0 0
0 0 0 0 0 0 0 0 0 0 0 0 0 0 0 0 0 0 0 0 0 0 0 0 0 0 0 0 0 0 0 0 0 0 0 0 0 0
0 0 0 0 0 0 0 0 0 0 0 0 0 0 0 0 0 0 0 0 0 0 0 0 0 0 0 0 0 0 0 0 0 0 0 0 0 0
0 0 0 0 0 0 0 0 0 0 0 0 0 0 0 0 0 0 0 0 0 0 0 0 0 0 0 0 0 0 0 0 0 0 0 0 0 0
0 0 0 0 0 0 0 0 0 0 0 0 0 0 0 0 0 0 0 0 0 0 0 0 0 0 0 0 0 0 0 0 0 0 0 0 0 0
0 0 0 0 0 0 0 0 0 0 0 0 0 0 0 0 0 0 0 0 0 0 0 0 0 0 0 0 0 0 0 0 0 0 0 0 0 0
0 0 0 0 0 0 0 0 0 0 0 0 0 0 0 0 0 0 0 0 0 0 0 0 0 0 0 0 0 0 0 0 0 0 0 0 0 0
0 0 0 0 0 0 0 0 0 0 0 0 0 0 0 0 0 0 0 0 0 0 0 0 0 0 0 0 0 0 0 0 0 0 0 0 0 0
0 0 0 0 0 0 0 0 0 0 0 0 0 0 0 0 0 0 0 0 0 0 0 0 0 0 0 0 0 0 0 0 0 0 0 0 0 0
0 0 0 0 0 0 0 0 0 0 0 0 0 0 0 0 0 0 0 0 0 0 0 0 0 0 0 0 0 0 0 0 0 0 0 0 0 0
0 0 0 0 0 0 0 0 0 0 0 0 0 0 0 0 0 0 0 0 0 0 0 0 0 0 0 0 0 0 0 0 0 0 0 0 0 0
0 0 0 0 0 0 0 0 0 0 0 0 0 0 0 0 0 0 0 0 0 0 0 0 0 0 0 0 0 0 0 0 0 0 0 0 0 0
0 0 0 0 0 0 0 0 0 0 0 0 0 0 0 0 0 0 0 0 0 0 0 0 0 0 0 0 0 0 0 0 0 0 0 0 0 0
0 0 0 0 0 0 0 0 0 0 0 0 0 0 0 0 0 0 0 0 0 0 0 0 0 0 0 0 0 0 0 0 0 0 0 0 0 0
0 0 0 0 0 0 0 0 0 0 0 0 0 0 0 0 0 0 0 0 0 0 0 0 0 0 0 0 0 0 0 0 0 0 0 0 0 0
0 0 0 0 0 0 0 0 0 0 0 0 0 0 0 0 0 0 0 0 0 0 0 0 0 0 0 0 0 0 0 0 0 0 0 0 0 0
Wind_Speed
3 2 1 1 1 0 1 1 1 2 2 2 2 2 2 1 1 3 2 5 7 7 6 6 5 5 6 7 9 10 12 13 15 15 16 17 19 23
3 3 2 1 1 1 1 1 1 1 2 2 2 2 3 5 2 3 3 4 8 9 8 7 6 6 6 8 9 10 12 14 15 16 16 17 18 20
4 5 4 4 3 3 2 2 2 2 2 3 2 2 3 4 4 4 3 3 4 9 10 8 7 7 7 8 9 11 12 13 15 16 17 17 18 20
6 5 5 5 5 4 3 3 2 1 1 3 2 2 3 4 5 5 4 3 2 5 10 9 8 7 7 7 8 10 11 12 13 14 16 17 19 21
7 7 7 7 6 4 4 5 4 4 2 2 2 2 3 4 5 6 5 3 4 0 6 8 8 8 7 7 7 8 10 10 11 12 13 16 18 21
8 8 8 7 6 5 6 6 5 5 4 3 3 4 4 6 6 6 5 4 4 4 3 1 4 7 8 6 6 7 7 8 8 9 10 12 16 19
8 7 8 8 8 6 6 5 5 5 5 5 4 5 5 6 6 5 6 5 4 3 3 2 1 2 3 4 4 5 6 7 7 6 6 9 13 17
6 5 6 6 5 5 5 5 5 5 5 5 4 5 5 5 5 6 5 6 5 4 4 3 2 2 2 2 2 4 5 7 7 5 2 4 9 14
5 4 6 8 7 5 3 1 1 1 2 2 4 4 4 4 5 6 7 6 5 4 4 3 2 2 2 2 2 3 4 6 6 5 4 4 6 11
6 6 6 7 8 7 5 3 2 2 2 2 2 3 3 4 4 5 6 7 4 2 3 3 3 3 2 0 1 2 3 4 5 6 7 7 9 10
6 7 6 6 9 10 6 5 5 5 2 3 5 7 8 9 5 4 6 6 6 4 3 3 4 4 2 1 1 1 2 3 4 5 7 8 10 10
6 6 9 7 7 9 6 5 5 5 7 7 5 5 4 3 4 2 4 5 6 5 5 4 4 4 4 2 1 0 0 2 3 4 6 7 8 5
5 5 4 5 5 6 5 3 3 5 6 6 3 3 4 4 5 4 3 3 4 4 5 4 4 4 3 4 2 1 1 0 1 2 5 6 6 4
4 6 5 3 1 3 3 5 8 8 4 3 4 4 4 4 4 5 5 4 3 3 3 3 3 4 4 4 3 3 1 1 0 1 2 5 5 4
5 6 6 5 2 3 6 7 6 3 3 4 4 4 3 4 4 4 5 6 6 5 5 3 3 4 3 3 3 4 3 2 1 0 2 3 3 3
4 5 5 5 4 5 5 4 3 1 2 3 3 3 4 4 4 4 4 4 4 4 5 6 5 5 3 4 3 3 3 3 3 2 1 1 2 3
3 3 4 4 4 4 3 2 2 2 2 2 3 3 4 4 4 4 4 4 4 5 5 5 5 4 4 4 3 4 4 3 3 2 1 1 0 1
2 3 4 4 3 2 2 2 3 3 2 2 2 3 3 3 4 4 4 4 4 4 4 4 5 5 4 3 5 5 4 4 3 3 2 2 1 1
2 3 2 2 2 2 1 2 3 4 2 2 2 3 3 3 3 4 3 4 4 4 4 3 4 5 6 6 4 5 4 4 3 3 3 2 1 2
4 5 3 2 2 1 1 2 2 3 2 1 2 2 2 3 3 3 3 3 4 4 4 3 4 4 3 4 3 3 4 4 4 4 3 2 1 2
6 5 4 3 3 3 2 2 2 2 2 0 1 1 2 2 2 3 3 4 3 4 4 4 3 5 3 2 3 3 2 3 3 3 4 3 2 2
6 5 4 4 4 3 3 3 2 2 3 2 1 1 1 2 3 3 3 4 3 4 5 4 4 4 4 4 4 3 3 2 2 3 3 3 2 1
6 5 4 5 4 4 4 4 4 2 2 2 1 1 0 1 1 2 3 4 4 5 5 5 5 4 4 4 4 4 6 5 2 1 1 2 1 2
Wind_Direction
191 185 185 166 229 34 35 16 346 330 333 21 23 41 23 357 169 255 256 200 201 211 222 233 247 263 275 282 281 278 274 268 260 252 247 240 231 222
147 128 103 79 65 34 36 30 24 344 332 346 359 36 18 350 14 319 307 202 210 216 223 230 241 258 273 282 283 281 276 270 262 251 242 234 227 220
108 102 94 77 51 27 25 32 35 23 338 334 6 20 22 354 334 311 291 238 221 214 219 226 238 252 262 273 282 286 285 277 267 254 243 232 222 214
91 90 83 79 66 44 20 27 16 347 337 337 346 14 23 4 344 328 337 338 308 209 211 221 233 248 262 275 284 290 291 285 274 259 243 228 217 208
81 79 71 62 50 32 37 25 5 0 343 346 7 31 25 6 352 345 350 346 336 4 209 224 236 248 261 274 287 296 299 295 283 266 245 225 211 202
75 71 67 61 43 15 46 25 12 353 357 17 32 33 24 7 4 348 347 348 346 355 345 284 236 244 254 266 290 308 314 313 302 280 250 223 206 195
87 87 81 78 64 47 50 29 20 17 18 17 27 30 19 8 0 339 344 335 337 2 338 333 311 276 256 256 284 330 340 336 330 315 268 221 198 186
93 102 109 81 73 67 66 59 46 42 29 19 23 17 11 5 344 336 337 338 335 346 335 323 347 336 335 3 18 360 4 2 355 350 332 217 188 175
70 58 72 66 46 26 14 105 96 74 39 33 29 2 354 350 336 332 332 329 319 327 336 320 339 332 338 28 26 20 21 24 20 22 45 102 151 154
74 63 72 59 32 10 357 23 48 59 18 41 23 330 336 325 322 320 322 330 331 355 359 324 331 327 318 14 52 35 42 46 51 59 73 90 108 125
82 58 68 68 29 14 14 27 26 13 356 300 279 282 292 299 305 332 344 349 344 344 9 338 324 319 305 327 83 44 51 75 80 85 91 100 109 114
108 91 72 69 43 27 19 22 19 355 337 325 305 284 295 334 12 12 358 349 341 336 359 348 332 335 325 332 8 261 50 111 124 125 120 120 124 122
145 125 101 82 52 22 3 13 355 318 303 302 330 13 11 14 17 1 353 342 337 325 332 345 328 332 321 316 320 330 326 103 155 153 154 155 155 146
87 112 125 128 62 338 334 337 331 325 315 348 19 15 8 6 346 336 338 333 312 297 326 352 329 329 328 326 326 335 346 3 149 173 158 167 180 188
90 121 147 172 218 263 268 291 315 338 2 7 12 6 355 344 337 346 349 344 342 358 17 9 358 340 338 336 335 339 340 350 353 186 167 170 177 176
145 156 180 207 247 279 270 254 228 79 10 359 7 355 350 353 359 359 353 343 350 349 359 7 4 359 353 355 4 360 1 359 350 341 344 169 177 185
156 174 199 209 219 227 220 187 107 81 29 11 17 7 2 357 355 356 348 347 358 353 354 360 357 3 39 22 14 4 357 4 1 352 359 25 5 188
155 220 217 209 199 181 156 137 119 91 32 3 32 21 3 352 353 351 356 0 356 349 351 359 0 354 352 40 30 8 360 355 354 359 6 22 21 37
204 249 235 187 157 142 131 106 101 110 86 13 35 24 357 346 356 350 359 7 351 341 343 6 14 5 356 354 356 16 2 348 350 1 7 12 26 30
230 239 224 183 163 148 120 106 105 113 103 27 46 28 350 341 355 348 356 15 340 334 345 10 16 356 333 321 317 349 20 7 357 356 351 356 53 74
219 228 219 187 174 161 150 155 156 136 126 180 114 58 347 342 354 344 347 2 345 353 353 353 344 323 303 319 343 360 22 32 27 7 345 351 11 31
222 218 210 189 181 172 165 175 190 168 162 185 148 102 20 1 347 346 359 359 2 6 351 341 346 346 347 351 354 358 4 15 50 46 46 30 16 10
230 228 209 195 192 180 181 187 196 199 174 163 155 141 67 4 328 348 9 10 7 5 356 349 348 346 353 353 355 0 3 2 7 25 26 347 329 280